Weather

Vsebine: Paragliding sitesCurrent conditionsCurrent conditions (amateur)Radar rainfal imageMeteo stationsPanoramic cameras


Current conditions (official report)

Show amateur stations

Click on a specific station to see its location

Location Weather conditions Temperature Wind Air pressure Last updated Geopedia
    °C direction speed (m/s) gusts (m/s) hPa    
Babno Polje 8   - - 2020-09-27 21:23:00
Babno Polje (756 m) 5   - - 2016-01-12 07:40:00
Bilje Nova Gorica 13   4 6 1006 2020-09-27 21:23:00
Bilje pri Novi Gorici 14   4 - 1006 2020-09-27 21:30:00
Blegoš 4   - - 2020-09-27 21:22:00
Bohinjska Češnjica 9   - - 2020-09-27 21:22:00
Boršt Gorenja vas 8   1 2 2020-09-27 21:23:00
Bovec 10   1 2 1007 2020-09-27 21:05:00
Breginj 11   - - 2020-09-27 20:33:00
Bukovski vrh 8   - - 2020-09-27 21:22:00
Celje 11   1 - 1009 2020-09-27 21:30:00
Cerkniško jezero 8   - - 2020-09-27 21:24:00
Črnomelj 12   1 - 1007 2020-09-27 21:30:00
Davča 6   - - 2020-09-27 21:22:00
Dobliče Črnomelj 12   1 5 1007 2020-09-27 21:03:00
Dolenje Ajdovščina 13   2 9 2020-09-27 21:04:00
Gačnik 12   1 2 2020-09-27 21:22:00
Godnje 11   3 8 2020-09-27 21:22:00
Gornji Grad 10   - - 2020-09-27 21:22:00
Hočko Pohorje 10   - - 2020-09-27 21:22:00
Hrastnik 11   - - 2020-09-27 21:22:00
Idrija 10   - - 2020-09-27 21:22:00
Ilirska Bistrica 10   2 3 2020-09-27 21:05:00
Iskrba 9   1 3 2020-09-27 21:22:00
Jeronim 9   - - 2020-09-27 21:22:00
Jeruzalem 12   - - 2020-09-27 21:22:00
Jezersko 8   - - 2020-09-27 21:23:00
Juršče   - - 2016-09-13 14:33:00
Kamniška Bistrica 9   - - 2020-09-27 21:22:00
Kanin -2   - - 2020-09-27 21:22:00
Katarina nad Ljubljano 8   - - 2020-09-27 20:42:00
Kočevje 9   1 2 2020-09-27 21:24:00
Koper Kapitanija 14   2 5 1006 2020-09-27 21:05:00
Korensko sedlo 6   - - 2020-09-27 21:24:00
Kraj. park Goričko 11   4 5 2020-09-27 21:04:00
Kranj 11   - - 2020-09-27 21:24:00
Kredarica -4   4 - 2020-09-27 21:30:00
Krn 7   - - 2020-09-27 21:24:00
Krško 13   3 6 1009 2020-09-27 21:07:00
Krvavec 1   2 9 2020-09-27 21:24:00
Kubed 11   - - 2020-09-27 21:24:00
Kum 5   4 8 2020-09-27 21:24:00
Lendava 13   1 3 1010 2020-09-27 21:04:00
Let. E. Rusjana Maribor 12   3 3 1009 2020-09-27 21:04:00
Let. J. Pučnika Lj. 0   2 3 1011 2015-11-26 11:03:00
Let. J. Pučnika Ljubljana 10   2 4 1008 2020-09-27 21:22:00
Letališče Cerklje ob Krki 12   2 - 1008 2020-09-27 21:30:00
Letališče Edvarda Rusjana Maribor 12   3 - 1010 2020-09-27 21:30:00
Letališče Jožeta Pučnika Ljubljana 10   3 - 1008 2020-09-27 21:30:00
Letališče Lesce 10   1 - 1008 2020-09-27 21:30:00
Letališče Portorož 12   3 - 1005 2020-09-27 21:30:00
Lisca 7   6 13 2020-09-27 21:30:00
Lisca (943 m) 9   5 12 2016-03-29 14:02:00
Litija 11   - - 2020-09-27 21:24:00
Ljubljana 11   2 - 1008 2020-09-27 21:30:00
Logarska dolina 7   - - 2020-09-27 21:24:00
Logatec 9   - - 2020-09-27 21:24:00
Luka Koper 13   2 8 2020-09-27 21:04:00
Malkovec 11   2 4 1008 2020-09-27 21:05:00
Maribor 12   2 4 2020-09-27 21:23:00
Maribor - Tabor -3   1 2 2020-01-14 09:33:00
Marinča vas 10   - - 2020-09-27 21:22:00
Metlika 11   - - 2020-09-27 21:24:00
Mežica 9   - - 2020-09-27 21:24:00
Miklavž na Gorjancih 7   - - 2020-09-27 21:24:00
Murska Sobota 11   1 - 1010 2020-09-27 21:30:00
Nanos 4   10 18 2020-09-27 21:24:00
Nova Gorica 14   - - 2020-09-27 21:22:00
Nova vas - Bloke 8   - - 2020-09-27 21:24:00
Novo mesto 11   5 - 1008 2020-09-27 21:30:00
Osilnica 10   - - 2020-09-27 21:24:00
Otlica 6   6 12 2020-09-27 21:02:00
Otlica (965 m) 7   4 7 2016-03-31 08:24:00
Park Škocj. jame 9   1 4 1006 2020-09-27 21:02:00
Pasja ravan 5   2 7 2020-09-27 21:24:00
Pavličevo sedlo 4   - - 2020-09-27 21:24:00
Piran-ocean. boja 15   12 15 2020-09-27 21:04:00
Planina pod Golico 7   - - 2020-09-27 21:24:00
Podčetrtek 11   1 3 1008 2020-09-27 21:04:00
Podnanos 12   - - 2020-09-27 21:24:00
Postojna 8   2 - 2020-09-27 21:30:00
Predel 6   - - 2020-09-27 21:24:00
Ptuj 12   2 4 2020-09-27 21:24:00
Ptuj - Terme -2   2 3 2017-01-19 14:35:00
Radegunda 9   - - 2020-09-27 21:22:00
Radenci 21   - - 1016 2020-09-22 11:34:00
Rateče 7   2 - 2020-09-27 21:30:00
Rateče (864 m) 7   2 3 2020-09-27 21:03:00
Ratitovec 1   8 13 2020-09-27 21:24:00
Ravne na Koroškem 11   1 4 2020-09-27 21:05:00
Rogaška Slatina 12   2 5 2020-09-27 21:24:00
Rogla 3   7 10 2020-09-27 21:24:00
Rogla (1492 m) -11   4 7 2016-01-18 10:32:00
Rudno polje 3   2 3 2020-09-27 21:24:00
Rudno polje (1347 m) -2   1 3 2015-10-20 07:36:00
Sevno 9   - - 2020-09-27 21:24:00
Slavnik 5   15 18 2020-09-27 21:24:00
Slovenj Gradec 9   - - 2020-09-27 21:30:00
Slovenske Konjice 11   - - 2020-09-27 21:24:00
Sviščaki 4   7 12 2020-09-27 21:24:00
Šebreljski vrh 5   - - 2020-09-27 21:23:00
Šmartno pri Slovenj Gradcu 9   1 1 2020-09-27 21:24:00
Tatre 7   - - 2020-09-27 21:24:00
Tolmin - Volče 12   4 7 2020-09-27 21:24:00
Topol 8   - - 2020-09-27 21:23:00
Trbovlje 10   - 1 2020-09-27 21:07:00
Trebnje 11   - - 2020-09-27 21:23:00
Trije Kralji na Pohorju 5   - - 2020-09-27 21:24:00
Trojane - Limovce 8   - - 1008 2020-09-27 21:23:00
Uršlja gora 1   - - 2020-09-27 21:23:00
Vedrijan 12   - - 2020-09-27 21:23:00
Velenje 11   - - 2020-09-27 21:23:00
Velike Lašče 9   2 3 2020-09-27 21:23:00
Vogel 2   2 5 2020-09-27 21:23:00
Vojsko 8   - - 2020-09-27 14:42:00
Vrbanski plato -2   2 3 2016-12-07 11:23:00
Vrhnika 10   2 5 2020-09-27 21:23:00
Vršič 1   - - 2020-09-27 21:23:00
Zadlog 7   - - 2020-09-27 21:22:00
Zelenica 2   - - 2020-09-27 21:23:00
Zgornja Kapla 8   - - 2020-09-27 21:24:00
Zgornja Radovna 6   - - 2020-09-27 21:23:00
Zgornja Sorica 7   - - 2020-09-27 21:23:00
Source: Slovenian Environmental Agency, meteo.si